Starlink 36133

operational
NORAD ID: 66963 Int'l Des: 2025-288 Owner: SPXS Country: US Constellation: starlink
LEOCIRCULAR

About Starlink 36133

Description loading...

Live Position

Loading 3D Globe...

Upcoming Passes

Altitude History

Altitude vs Time

uPlot chart will show altitude changes over time

Two-Line Element Set

1 66963C 25288E 25346.09909722 -.01033900 00000+0 -19090-2 0 3467
2 66963 43.0036 171.8492 0001856 272.0034 123.7652 16.01206703 11
Epoch: Dec 12, 2025 • Age: 50 hours

Current Status

Altitude 288.9 km
Velocity 7.74 km/s
Sub-Earth Point -30.52°S, 89.22°W
Launch Date Dec 8, 2025
Age 5 days
Type internet

Technical Details

Classification Payload
Mass 575.00 kg
Dry Mass 530.00 kg
Total Mass 575.00 kg
Length 0.30 m
Diameter 4.10 m
Span 29.00 m
Shape Box + pan
Manufacturer SPXS
Bus Type Starlink V2MO
Phase Status In Orbit
Owner/State SPXS/US

Large Constellations

Loading constellations...